GW0206 Weather Reports


time (UTC)temp
C
wind
direction
speed
KPH
gust
KPH
rain 1hr
cm
rain 24hr
cm
rain mn
cm
humidity
%
barometer
mb
20260502194002 5 153 3.2 11.3 0.00 0.08 0.05 71 1016.5
20260502193507 5 165 1.6 14.5 0.00 0.13 0.05 72 1016.4
20260502193021 5 138 1.6 14.5 0.00 0.18 0.05 71 1016.5
20260502192506 5 135 3.2 11.3 0.00 0.20 0.05 70 1016.5
20260502192002 6 154 3.2 11.3 0.00 0.20 0.05 70 1016.6
20260502191503 6 194 3.2 11.3 0.00 0.20 0.05 67 1016.7
20260502191003 6 118 1.6 11.3 0.00 0.20 0.05 68 1016.7
20260502190503 6 215 3.2 16.1 0.00 0.20 0.05 68 1016.7
20260502190005 6 217 6.4 16.1 0.00 0.20 0.05 66 1016.7
20260502185503 7 134 3.2 16.1 0.00 0.20 0.05 67 1016.6
20260502185000 7 242 1.6 19.3 0.00 0.20 0.05 63 1016.7
20260502184504 7 248 9.7 19.3 0.00 0.23 0.05 64 1016.7
20260502184004 7 221 4.8 16.1 0.00 0.23 0.05 65 1016.7
20260502183504 7 225 8.0 16.1 0.00 0.25 0.05 66 1016.8
20260502183014 7 186 3.2 14.5 0.00 0.25 0.05 67 1016.8
20260502182506 7 193 4.8 14.5 0.00 0.25 0.05 66 1016.9
20260502182007 7 252 4.8 14.5 0.00 0.25 0.05 73 1016.9
20260502181524 6 205 6.4 14.5 0.00 0.25 0.05 74 1017.0
20260502181003 6 88 6.4 14.5 0.00 0.25 0.05 70 1017.2
20260502180503 6 189 6.4 14.5 0.00 0.28 0.05 72 1017.2
20260502170507 3 186 4.8 14.5 0.00 0.43 0.05 82 1017.2
20260502164003 3 228 4.8 16.1 0.00 0.51 0.05 83 1017.3
20260502163504 3 221 8.0 14.5 0.00 0.53 0.05 85 1017.3
20260502163007 3 165 6.4 16.1 0.00 0.53 0.05 84 1017.3
20260502162507 3 210 6.4 17.7 0.00 0.56 0.05 84 1017.3
20260502161512 3 161 4.8 19.3 0.00 0.58 0.05 84 1017.1
20260502161003 3 197 11.3 19.3 0.00 0.61 0.05 82 1017.2
20260502160504 4 211 4.8 17.7 0.00 0.61 0.05 82 1017.1
20260502152003 3 220 9.7 17.7 0.00 0.84 0.05 83 1016.8
20260502151512 3 192 9.7 14.5 0.00 0.84 0.05 85 1016.8
20260502151004 3 234 6.4 16.1 0.00 0.86 0.05 86 1016.7
20260502150504 3 195 4.8 17.7 0.00 0.86 0.05 86 1016.7
20260502130501 5 173 3.2 12.9 0.00 1.19 0.05 89 1015.4
20260502123501 4 155 3.2 8.0 0.00 1.19 0.05 95 1015.5
20260502123004 3 143 1.6 6.4 0.00 1.19 0.05 95 1015.6
20260502122502 3 111 1.6 6.4 0.00 1.19 0.05 95 1015.7
20260502122000 3 94 1.6 6.4 0.00 1.19 0.05 95 1015.7
20260502121504 3 135 1.6 6.4 0.00 1.19 0.05 95 1015.7
20260502121004 3 107 3.2 6.4 0.00 1.19 0.05 95 1015.7
20260502120506 3 155 1.6 8.0 0.00 1.19 0.05 95 1015.7
20260502115503 3 105 4.8 16.1 0.00 1.19 0.05 95 1015.7
20260502115002 3 139 4.8 11.3 0.00 1.19 0.05 96 1015.7
20260502114504 3 136 3.2 11.3 0.00 1.19 0.05 96 1015.5
20260502114002 2 141 1.6 11.3 0.00 1.19 0.05 96 1015.5
20260502113502 2 119 0.0 6.4 0.00 1.19 0.05 96 1015.4
20260502113005 2 119 0.0 6.4 0.00 1.19 0.05 96 1015.4
20260502112503 2 137 1.6 6.4 0.00 1.19 0.05 96 1015.4
20260502112007 2 122 1.6 4.8 0.00 1.19 0.05 96 1015.4
20260502111503 2 107 0.0 1.6 0.00 1.19 0.05 95 1015.4
20260502111004 2 107 0.0 1.6 0.00 1.19 0.05 95 1015.4
20260502110500 2 107 0.0 3.2 0.00 1.19 0.05 95 1015.4
20260502110004 2 107 0.0 3.2 0.00 1.19 0.05 94 1015.4
20260502105504 2 107 0.0 3.2 0.00 1.19 0.05 95 1015.3
20260502105005 2 107 0.0 4.8 0.00 1.19 0.05 95 1015.3
20260502104510 2 136 1.6 6.4 0.00 1.19 0.05 95 1015.2
20260502104008 2 104 3.2 6.4 0.00 1.19 0.05 95 1015.1
20260502103502 3 100 1.6 6.4 0.00 1.19 0.05 95 1015.1
20260502103019 3 84 3.2 6.4 0.00 1.19 0.05 95 1015.2
20260502102500 3 116 3.2 6.4 0.00 1.19 0.05 95 1015.3
20260502102001 3 113 1.6 6.4 0.00 1.19 0.05 95 1015.3
20260502101506 3 104 3.2 6.4 0.00 1.19 0.05 95 1015.2
20260502101001 3 77 1.6 4.8 0.00 1.19 0.05 95 1015.2
20260502100504 3 90 1.6 4.8 0.00 1.19 0.05 95 1015.2
20260502091505 3 58 1.6 6.4 0.03 1.19 0.05 94 1015.0
20260502091004 3 78 1.6 4.8 0.03 1.19 0.05 94 1014.9
20260502090505 3 90 1.6 4.8 0.03 1.19 0.05 94 1014.8
20260502071518 3 38 0.0 3.2 0.03 1.17 0.03 94 1015.1
20260502071005 3 38 0.0 3.2 0.03 1.17 0.03 94 1015.1
20260502070507 3 38 0.0 6.4 0.03 1.17 0.03 94 1015.1
20260502070014 3 51 1.6 6.4 0.03 1.17 0.03 94 1015.0
20260502065505 3 50 3.2 8.0 0.00 1.14 0.00 94 1015.1
20260502065010 3 46 3.2 8.0 0.00 1.14 0.00 94 1015.2
20260502064518 3 86 4.8 9.7 0.00 1.14 0.00 94 1015.3
20260502064007 3 65 4.8 11.3 0.00 1.14 0.00 94 1015.3
20260502063505 3 39 6.4 11.3 0.00 1.14 0.00 94 1015.4
20260502063009 3 59 4.8 12.9 0.00 1.14 0.00 94 1015.5
20260502062506 3 41 6.4 12.9 0.00 1.14 0.00 94 1015.5
20260502062004 3 59 3.2 12.9 0.00 1.14 0.00 94 1015.5
20260502061516 3 26 4.8 12.9 0.00 1.14 0.00 94 1015.5
20260502061003 3 38 3.2 6.4 0.00 1.14 0.00 95 1015.5
20260502060505 3 78 1.6 4.8 0.00 1.14 0.00 94 1015.6
20260502060018 3 338 0.0 0.0 0.00 1.14 0.00 94 1015.5
20260502055505 3 338 0.0 0.0 0.00 1.14 0.00 94 1015.6
20260502055005 3 338 0.0 3.2 0.00 1.14 0.00 95 1015.5
20260502054513 3 338 0.0 4.8 0.00 1.14 0.00 94 1015.7
20260502054005 3 338 1.6 4.8 0.00 1.14 0.00 94 1015.8
20260502053506 3 288 0.0 3.2 0.00 1.14 0.00 94 1015.7
20260502053018 3 288 0.0 3.2 0.00 1.14 0.00 94 1015.8
20260502052506 3 270 0.0 1.6 0.00 1.14 0.00 94 1015.8
20260502052007 3 270 0.0 3.2 0.00 1.14 0.00 94 1015.8
20260502051520 3 270 0.0 3.2 0.00 1.14 0.00 94 1015.7
20260502051007 3 270 0.0 1.6 0.00 1.14 0.00 94 1015.9
20260502050504 3 270 0.0 3.2 0.00 1.14 0.00 94 1015.8
20260502050019 3 270 0.0 3.2 0.00 1.14 0.00 94 1015.7
20260502045507 3 270 1.6 3.2 0.00 1.14 0.00 94 1015.7
20260502045006 3 270 0.0 3.2 0.00 1.14 0.00 94 1015.8
20260502044519 3 270 1.6 3.2 0.00 1.14 0.00 95 1015.7
20260502044008 3 270 1.6 4.8 0.00 1.14 0.00 94 1015.7
20260502043511 3 273 1.6 4.8 0.00 1.14 0.00 94 1015.8
20260502043024 3 5 1.6 3.2 0.00 1.14 0.00 94 1015.8
20260502042506 3 13 0.0 3.2 0.00 1.14 0.00 94 1015.9
20260502042006 3 13 0.0 3.2 0.00 1.14 0.00 94 1015.9
20260502041520 3 13 0.0 4.8 0.00 1.14 0.00 94 1015.9
20260502041010 3 13 1.6 4.8 0.00 1.14 0.00 94 1016.0
20260502040509 3 10 1.6 4.8 0.00 1.14 0.00 94 1016.1
20260502040026 3 11 1.6 4.8 0.00 1.14 0.00 94 1016.1
20260502035505 3 350 0.0 4.8 0.00 1.14 1.14 94 1015.9
20260502035007 3 165 1.6 3.2 0.00 1.14 1.14 94 1016.0
20260502034523 2 165 0.0 1.6 0.00 1.14 1.14 94 1016.1
20260502034010 2 165 0.0 0.0 0.00 1.14 1.14 94 1016.2
20260502033506 2 165 0.0 0.0 0.00 1.14 1.14 94 1016.1
20260502033035 2 165 0.0 1.6 0.00 1.14 1.14 94 1016.1
20260502032504 2 165 0.0 1.6 0.00 1.14 1.14 94 1016.1
20260502032008 2 165 0.0 1.6 0.00 1.14 1.14 94 1016.0
20260502031525 2 165 0.0 1.6 0.00 1.14 1.14 94 1016.0
20260502031009 2 165 0.0 0.0 0.00 1.14 1.14 94 1016.0
20260502030509 2 165 0.0 1.6 0.00 1.14 1.14 94 1016.0
20260502030006 2 165 0.0 3.2 0.00 1.14 1.14 94 1015.9
20260502025505 2 165 0.0 3.2 0.00 1.14 1.14 94 1015.9
20260502025005 2 165 0.0 1.6 0.00 1.14 1.14 94 1015.9
20260502024508 2 165 0.0 0.0 0.00 1.14 1.14 94 1015.9
20260502024005 2 165 0.0 0.0 0.00 1.14 1.14 93 1015.8
20260502023501 2 165 0.0 1.6 0.00 1.14 1.14 93 1015.9
20260502023008 2 165 0.0 1.6 0.00 1.14 1.14 93 1015.9
20260502022502 2 165 0.0 0.0 0.00 1.14 1.14 93 1015.9
20260502022004 2 165 0.0 0.0 0.00 1.14 1.14 94 1015.8
20260502021510 2 165 0.0 0.0 0.00 1.14 1.14 93 1015.8
20260502021004 2 165 0.0 0.0 0.00 1.14 1.14 93 1015.7
20260502020502 2 165 0.0 0.0 0.00 1.14 1.14 93 1015.8
20260502020016 2 165 0.0 0.0 0.00 1.14 1.14 92 1015.8
20260502015510 2 165 0.0 0.0 0.00 1.14 1.14 92 1015.7
20260502015012 2 165 0.0 0.0 0.00 1.14 1.14 92 1015.7
20260502014510 2 165 0.0 0.0 0.00 1.14 1.14 92 1015.6
20260502014006 2 165 0.0 0.0 0.00 1.14 1.14 92 1015.5
20260502013506 2 165 0.0 0.0 0.00 1.14 1.14 91 1015.5
20260502013005 2 165 0.0 0.0 0.00 1.14 1.14 90 1015.5
20260502012504 2 165 0.0 0.0 0.00 1.14 1.14 90 1015.5
20260502012006 2 165 0.0 0.0 0.00 1.14 1.14 90 1015.4
20260502011510 2 165 0.0 0.0 0.00 1.14 1.14 90 1015.4
20260502011005 2 165 0.0 0.0 0.00 1.14 1.14 89 1015.4
20260502010504 2 165 0.0 0.0 0.00 1.14 1.14 89 1015.3
20260502010019 2 165 0.0 0.0 0.00 1.14 1.14 89 1015.3
20260502005505 3 165 0.0 0.0 0.00 1.14 1.14 88 1015.3
20260502005006 3 165 0.0 0.0 0.00 1.14 1.14 88 1015.3
20260502004518 3 165 0.0 0.0 0.00 1.14 1.14 88 1015.1
20260502004010 3 165 0.0 0.0 0.00 1.14 1.14 87 1015.0
20260502003502 3 165 0.0 1.6 0.00 1.14 1.14 87 1014.9
20260502003014 3 165 0.0 1.6 0.00 1.14 1.14 87 1014.7
20260502002506 3 165 0.0 0.0 0.00 1.14 1.14 87 1014.6
20260502002010 4 165 0.0 0.0 0.00 1.14 1.14 86 1014.5
20260502001513 4 165 0.0 1.6 0.00 1.14 1.14 86 1014.4
20260502001007 4 165 0.0 3.2 0.00 1.14 1.14 86 1014.4
20260502000504 4 165 0.0 3.2 0.00 1.14 1.14 85 1014.3
20260502000010 5 165 0.0 3.2 0.00 1.14 1.14 85 1014.3
20260501235508 5 165 0.0 3.2 0.00 1.14 1.14 85 1014.3
20260501235008 5 165 0.0 3.2 0.00 1.14 1.14 85 1014.1
20260501234513 5 161 0.0 0.0 0.00 1.14 1.14 84 1014.1
20260501234005 5 155 0.0 6.4 0.00 1.14 1.14 84 1014.2
20260501233507 5 160 0.0 9.7 0.00 1.14 1.14 84 1014.2
20260501233019 5 175 3.2 9.7 0.00 1.14 1.14 83 1014.2
20260501232512 5 173 1.6 9.7 0.00 1.14 1.14 82 1014.2
20260501232005 6 185 3.2 9.7 0.00 1.14 1.14 81 1014.2
20260501231518 6 198 3.2 14.5 0.00 1.14 1.14 83 1014.3
20260501231008 6 234 6.4 14.5 0.00 1.14 1.14 81 1014.2
20260501230510 6 175 1.6 8.0 0.00 1.14 1.14 84 1014.3
20260501230017 5 184 0.0 12.9 0.03 1.14 1.14 85 1014.2
20260501225508 5 187 1.6 14.5 0.03 1.14 1.14 84 1014.2
20260501225011 5 209 6.4 14.5 0.03 1.14 1.14 85 1014.2
20260501224510 5 189 3.2 17.7 0.03 1.14 1.14 85 1014.2
20260501224005 5 89 4.8 17.7 0.03 1.14 1.14 85 1014.1
20260501223506 5 177 4.8 14.5 0.03 1.14 1.14 87 1014.0
20260501223033 5 157 4.8 12.9 0.03 1.14 1.14 87 1014.0
20260501222506 5 186 3.2 17.7 0.03 1.14 1.14 86 1013.8
20260501222010 5 188 6.4 17.7 0.03 1.14 1.14 86 1013.8
20260501221529 5 187 8.0 17.7 0.03 1.14 1.14 87 1013.7
20260501221007 5 200 8.0 22.5 0.03 1.14 1.14 86 1013.7
20260501220506 6 219 11.3 22.5 0.03 1.14 1.14 88 1013.7
20260501220030 6 213 11.3 20.9 0.00 1.12 1.12 91 1013.4
20260501215509 5 187 6.4 17.7 0.00 1.12 1.12 92 1013.3
20260501215003 5 171 6.4 19.3 0.00 1.12 1.12 93 1013.2
20260501214530 5 199 4.8 19.3 0.00 1.12 1.12 92 1013.1
20260501214009 5 173 6.4 17.7 0.00 1.12 1.12 92 1013.1
20260501213512 5 194 3.2 25.7 0.00 1.12 1.12 92 1013.1
20260501213015 5 169 8.0 25.7 0.00 1.12 1.12 92 1013.0
20260501212506 5 182 9.7 19.3 0.00 1.12 1.12 92 1012.9
20260501212006 5 180 4.8 19.3 0.00 1.12 1.12 92 1012.8
20260501211520 5 200 8.0 19.3 0.00 1.12 1.12 92 1012.7
20260501211008 5 144 6.4 24.1 0.00 1.12 1.12 93 1012.7
20260501210506 5 178 6.4 24.1 0.00 1.12 1.12 93 1012.7
20260501210004 5 205 6.4 14.5 0.00 1.12 1.12 94 1012.5
20260501205502 5 164 4.8 11.3 0.00 1.12 1.12 94 1012.4
20260501205002 5 186 6.4 11.3 0.00 1.12 1.12 94 1012.3
20260501204507 5 169 4.8 14.5 0.00 1.12 1.12 95 1012.3
20260501204003 5 152 4.8 14.5 0.00 1.12 1.12 94 1012.2
20260501203502 5 142 6.4 17.7 0.05 1.12 1.12 94 1012.1
20260501203009 5 189 6.4 17.7 0.10 1.12 1.12 94 1012.1
20260501202504 5 194 4.8 14.5 0.13 1.12 1.12 94 1012.2
20260501202004 5 188 3.2 12.9 0.13 1.12 1.12 94 1012.1
20260501201502 5 177 6.4 17.7 0.13 1.12 1.12 94 1012.0
20260501201002 5 168 6.4 17.7 0.13 1.12 1.12 94 1012.0
20260501200501 5 188 4.8 17.7 0.13 1.12 1.12 94 1012.0
20260501200005 5 223 6.4 14.5 0.13 1.12 1.12 94 1011.9
20260501195502 6 196 8.0 16.1 0.13 1.12 1.12 95 1011.9
20260501195002 5 184 3.2 16.1 0.13 1.12 1.12 95 1011.9
20260501194504 5 194 4.8 12.9 0.15 1.12 1.12 95 1011.9